Regional Weather Roundup
Issued by NWS

Home | Current Version | Previous Version | Graphics & Text | Print | Product List | Glossary On
Versions: 1 2 3 4 5 6 7 8 9 10 11 12 13 14 15 16 17 18 19 20 21 22 23 24 25 26 27 28 29 30 31 32 33 34 35 36 37 38 39 40 41 42 43 44 45 46 47 48 49 50
000
ASUS43 KLMK 171810
RWRKY
KENTUCKY REGIONAL WEATHER ROUNDUP
NATIONAL WEATHER SERVICE LOUISVILLE KY
200 PM EDT THU APR 17 2014

NOTE "FAIR" INDICATES FEW OR NO CLOUDS BELOW 12,000 FEET
WITH NO SIGNIFICANT WEATHER AND/OR OBSTRUCTIONS TO VISIBILITY.

KYZ001>023-026-027-061>063-070>075-171900-
WESTERN AND SOUTH CENTRAL KENTUCKY

CITY           SKY/WX    TMP DP  RH WIND       PRES   REMARKS
PADUCAH        SUNNY     66  40  38 S8        30.28F
HENDERSON      SUNNY     64  39  39 SW8G17    30.30F
OWENSBORO      SUNNY     63  40  42 S8G16     30.32F
HOPKINSVILLE   SUNNY     66  37  34 S6        30.31F
BOWLING GREEN  SUNNY     63  33  32 VRB6      30.35F
GLASGOW        SUNNY     63  33  32 S6        30.35F
$$

KYZ024-025-028>034-038-045-046-053-171900-
NORTH CENTRAL KENTUCKY

CITY           SKY/WX    TMP DP  RH WIND       PRES   REMARKS
LOUISVILLE/SDF MOSUNNY   66  36  32 W12G17    30.32F
LOUISVILLE/LOU SUNNY     66  35  31 SW6       30.33F
FORT KNOX      SUNNY     63  35  35 SE9       30.32F
$$

KYZ035>037-039>044-047>052-055>060-089>105-171900-
NORTHEAST KENTUCKY

CITY           SKY/WX    TMP DP  RH WIND       PRES   REMARKS
LEXINGTON      SUNNY     65  35  33 S10       30.36F
COVINGTON      MOSUNNY   64  36  35 S9G25     30.33F
FRANKFORT      SUNNY     64  34  32 VRB7      30.34F
$$

KYZ054-064>069-076>088-106>120-171900-
SOUTHEAST KENTUCKY

CITY           SKY/WX    TMP DP  RH WIND       PRES   REMARKS
JACKSON        SUNNY     66  25  21 CALM      30.37F
LONDON         SUNNY     64  27  24 E6        30.37F
SOMERSET       SUNNY     63  28  27 W5        30.38F
MIDDLESBORO    SUNNY     64  27  24 E7        30.38F
MONTICELLO     CLEAR     65  29  26 SW5       30.36F
$$




USA.gov is the U.S. government's official web portal to all federal, state and local government web resources and services.